Location: Mittersill
(44.1801°N, 71.7142°W)
Time: 02:44:11
(UTC+00:00)

Cosmos 44 Rocket - Pass Details

Date: 10 September 2024
Orbit: 651 x 731 km, 65.1° (Epoch: 04 October)

Event Time Altitude Azimuth Distance (km) Brightness Sun altitude
Rises 23:41:58 0° 327° (NNW) 3,033 7.4 -7.3°
Reaches altitude 10° 23:44:21 10° 331° (NNW) 2,103 6.5 -7.7°
Maximum altitude 23:49:05 65° 53° (NE) 728 3.3 -8.5°
Drops below altitude 10° 23:53:42 10° 136° (SE) 2,057 5.2 -9.3°
Enters shadow 23:54:07 - 136° (SE) 2,217 5.4 -9.4°
